This is the latest recevied weather packets stored in our database for station/object N0QV. If no packets are shown the sender has not sent any weather packets the latest 10 day(s).
| Time | Temp. | Humidity | Pressure | Rain* | Wind** | Luminosity | Snow |
|---|---|---|---|---|---|---|---|
| 1788308326 | 27.22° C | 73% | 1012.9 hPa | 0 mm | - | 19 W/m² | - |
| 1788308021 | 27.22° C | 72% | 1013.3 hPa | 0 mm | - | 22 W/m² | - |
| 1788307716 | 27.22° C | 72% | 1013.6 hPa | 0 mm | - | 19 W/m² | - |
| 1788307416 | 27.78° C | 72% | 1013.4 hPa | 0 mm | - | 23 W/m² | - |
| 1788307111 | 27.78° C | 72% | 1013.5 hPa | 0 mm | - | 29 W/m² | - |
| 1788306811 | 27.78° C | 72% | 1013.5 hPa | 0 mm | - | 37 W/m² | - |
| 1788306506 | 28.33° C | 71% | 1013.5 hPa | 0 mm | - | 43 W/m² | - |
| 1788306221 | 28.33° C | 70% | 1013.3 hPa | 0 mm | - | 53 W/m² | - |
| 1788305901 | 28.33° C | 69% | 1013.5 hPa | 0 mm | - | 63 W/m² | - |
| 1788305597 | 28.89° C | 69% | 1013.5 hPa | 0 mm | - | 75 W/m² | - |
| 1788305292 | 28.89° C | 69% | 1013.5 hPa | 0 mm | - | 79 W/m² | - |
| 1788304987 | 28.33° C | 70% | 1013.4 hPa | 0 mm | - | 76 W/m² | - |
| 1788304683 | 28.89° C | 70% | 1013.4 hPa | 0 mm | - | 70 W/m² | - |
| 1788304379 | 28.89° C | 69% | 1013.4 hPa | 0 mm | - | 68 W/m² | - |
| 1788304075 | 28.89° C | 70% | 1013.3 hPa | 0 mm | - | 71 W/m² | - |
| 1788303774 | 28.89° C | 70% | 1013.3 hPa | 0 mm | - | 76 W/m² | - |
| 1788303470 | 28.89° C | 69% | 1013 hPa | 0 mm | - | 77 W/m² | - |
| 1788303164 | 28.89° C | 69% | 1013.6 hPa | 0 mm | - | 74 W/m² | - |
| 1788302860 | 28.89° C | 66% | 1013.5 hPa | 0 mm | - | 83 W/m² | - |
| 1788302556 | 28.89° C | 63% | 1013.3 hPa | 0 mm | - | 87 W/m² | - |
| 1788302253 | 28.89° C | 65% | 1013.3 hPa | 0 mm | - | 101 W/m² | - |
| 1788301952 | 28.89° C | 64% | 1013.3 hPa | 0 mm | - | 111 W/m² | - |
| 1788301649 | 28.89° C | 66% | 1013.3 hPa | 0 mm | - | 120 W/m² | - |
| 1788301345 | 28.89° C | 67% | 1013.4 hPa | 0 mm | - | 124 W/m² | - |
| 1788301040 | 28.89° C | 65% | 1013.4 hPa | 0 mm | - | 139 W/m² | - |
* Rain latest hour (hover to see other rain measurements)
** Current wind speed in m/s (hover to see current wind gust speed)